Regional Weather Roundup
Issued by NWS

Home | Current Version | Previous Version | Text Only | Print | Product List | Glossary Off
Versions: 1 2 3 4 5 6 7 8 9 10 11 12 13 14 15 16 17 18 19 20 21 22 23 24 25 26 27 28 29 30 31 32 33 34 35 36 37 38 39 40 41 42 43 44 45 46 47 48 49

000
ASUS45 KTFX 300210
RWRMT
MONTANA REGIONAL WEATHER ROUNDUP
NATIONAL WEATHER SERVICE GREAT FALLS MT
800 PM MDT MON JUN 29 2015

NOTE: "FAIR" INDICATES FEW OR NO CLOUDS BELOW 12000 FEET WITH NO
SIGNIFICANT WEATHER AND/OR OBSTRUCTIONS TO VISIBILITY.

MTZ001>007-043-300300-
WEST OF THE DIVIDE

CITY           SKY/WX    TMP DP  RH WIND       PRES   REMARKS
KALISPELL      MOCLDY    88  57  34 NW5       29.95F
MISSOULA       MOSUNNY   91  48  22 N16       29.94R
BUTTE          CLOUDY    74  52  46 W7        30.21R
MULLAN PASS    MOSUNNY   72  55  55 CALM      30.20S
DEER LODGE       N/A     72  57  60 SW9G16    30.20R
EUREKA           N/A     81  63  54 CALM      29.94F
HAMILTON         N/A     77  57  50 S16       29.99R
PLAINS           N/A     91  56  30 W8        29.93S
RONAN            N/A     88  67  49 CALM      30.01S HX  91
THOMPSON FALLS   N/A     90  57  32 SW1       29.96F
$$

MTZ008-052>055-300300-
SOUTHWEST MONTANA

CITY           SKY/WX    TMP DP  RH WIND       PRES   REMARKS
BOZEMAN        CLOUDY    75  52  44 SE14G23   30.11F
DILLON         CLOUDY    74  55  51 E6        30.15S
W YELLOWSTONE  CLOUDY    68  48  49 NE6       30.33R
THREE FORKS      N/A     73  65  76 E6        30.11S
$$

MTZ009-010-012-014-046-048-049-054-300300-
EAST SLOPES AND CENTRAL MONTANA

CITY           SKY/WX    TMP DP  RH WIND       PRES   REMARKS
CUT BANK       SUNNY     86  53  32 NW6       30.00R
GREAT FALLS    SUNNY     89  48  24 NE13      29.97F
MALMSTROM AFB  SUNNY     89  51  27 E8        29.96F
HELENA         PTSUNNY   86  52  30 S13       30.01S
CONRAD           N/A     84  66  54 CALM      30.02R
$$

MTZ011-013-016-021-045-047-050-051-300300-
NORTH CENTRAL MONTANA

CITY           SKY/WX    TMP DP  RH WIND       PRES   REMARKS
HAVRE          CLOUDY    88  48  25 E14G23    29.90F
LEWISTOWN      CLOUDY    78  55  44 S14       30.08R
CHINOOK          N/A     86  54  32 E17G25    29.91F
FORT BENTON      N/A     88  54  31 NE6       29.92
$$

MTZ017>020-022>027-061-062-300300-
NORTHEAST MONTANA

CITY           SKY/WX    TMP DP  RH WIND       PRES   REMARKS
GLASGOW        PTCLDY    84  50  30 NE23G32   29.95R HAZE
JORDAN           N/A     89  47  23 E8        29.94R
SIDNEY         MOCLDY    84  59  42 N10       29.94R
WOLF POINT     MOCLDY    86  52  30 NE20G26   29.94R HAZE
MALTA            N/A     88  54  31 NE13      29.92S
PLENTYWOOD       N/A     73  48  40 N15G21    29.97F
POPLAR           N/A     82  50  32 N12G18    29.96R
$$

MTZ028>42-056>058-300300-
SOUTHCENTRAL AND SOUTHEAST MONTANA

CITY           SKY/WX    TMP DP  RH WIND       PRES   REMARKS
BAKER          MOCLDY    81  58  45 N7        29.97S
BILLINGS       MOCLDY    91  46  21 S7        30.01R
LIVINGSTON     LGT RAIN  69  32  25 SE13      30.17F
MILES CITY     MOCLDY    92  42  17 NE9       29.94R
BIG TIMBER       N/A     66  61  82 W13       30.22R
FORSYTH          N/A     90  48  24 E6        29.94S
LAUREL           N/A     87  49  26 CALM      30.01R
ROUNDUP          N/A     91  43  18 CALM      29.93R
$$

REGIONAL REPORTS...DAKOTAS

CITY           SKY/WX    TMP DP  RH WIND       PRES   REMARKS
WILLISTON      CLOUDY    85  56  37 N13       29.94R
MINOT          MOCLDY    77  66  68 E6        29.89S HAZE
DICKINSON      PTCLDY    83  66  56 N6        29.90R
BEACH          FAIR      75  61  60 N9        29.96S
CROSBY         FAIR      72  55  56 N10G20    29.98R HAZE
BISMARCK       PTCLDY    81  66  60 E7        29.89S
GRAND FORKS    CLOUDY    66  62  87 NW7       29.89R
FARGO          PTCLDY    69  63  81 N7        29.88R
BUFFALO SD       N/A     84  65  52 SW7       29.91S
RAPID CITY     CLEAR     79  64  60 SW6       30.02F
$$

REGIONAL REPORTS...WYOMING/IDAHO/WASHINGTON

CITY           SKY/WX    TMP DP  RH WIND       PRES   REMARKS
GILLETTE       PTCLDY    82  57  42 SE6       30.10R
SHERIDAN       CLEAR     78  65  63 SW6       30.05S
BUFFALO WY     CLEAR     81  54  39 W3        30.15S
CODY           CLOUDY    88  43  20 SE6       30.11R
YELLOWSTONE LA   N/A     65  46  50 NW10G21   30.39R
IDAHO FALLS    CLOUDY    79  53  40 NE13G23   30.09R
SALMON         CLOUDY    81  59  47 W7        29.99R
BOISE          PTSUNNY   95  52  23 N8        29.87S HX  92
SPOKANE        MOSUNNY   93  53  25 SW12      29.90F HX  90
$$

REGIONAL REPORTS...ALBERTA

CITY           SKY/WX    TMP DP  RH WIND       PRES   REMARKS
EDMONTON       MOSUNNY   64  55  72 S5        30.01F
CALGARY        PTSUNNY   72  55  56 SE10      30.04F
LETHBRIDGE     LGT RAIN  68  63  83 NE9       30.01F
MEDICINE HAT   CLOUDY    81  46  30 E12G24    29.94S SMOKE
CARDSTON         N/A     66  64  94 NE6         N/A
ONEFOUR          N/A     86  48  26 E22G30      N/A
$$

REGIONAL REPORTS...SASKATCHEWAN

CITY           SKY/WX    TMP DP  RH WIND       PRES   REMARKS
SWIFT CURRENT  HAZE      72  48  43 E12G17    30.04F VSB 3/8
REGINA         LGT RAIN  70  54  56 N9        30.01F SMOKE
SASKATOON      SMOKE     70  57  64 W5        30.03S VSB 1
CYPRESS HILLS    N/A     70  46  43 E10         N/A
VAL MARIE        N/A     75  46  35 NE17        N/A
ASSINIBOIA       N/A     66  61  82 SW5         N/A
$$



USA.gov is the U.S. government's official web portal to all federal, state and local government web resources and services.